Regional Weather Roundup
Issued by NWS State College, PA

Home | Current Version | Previous Version | Text Only | Print | Product List | Glossary Off
Versions: 1 2 3 4 5 6 7 8 9 10 11 12 13 14 15 16 17 18 19 20 21 22 23 24 25 26 27 28 29 30 31 32 33 34 35 36 37 38 39 40 41 42 43 44 45 46 47 48 49 50

000
ASUS41 KCTP 300410
RWRCTP

REGIONAL WEATHER ROUNDUP
NATIONAL WEATHER SERVICE STATE COLLEGE PA
1200 AM EDT TUE JUN 30 2015

Note: "fair" indicates few or no clouds below 12,000 feet with no
significant weather and/or obstructions to visibility.

* = STATION THAT DOES NOT REPORT PRECIPITATION /E.G. RAIN...SNOW...ETC/
    THUNDER OR FOG.

PAZ002>004-007>009-013>016-020>023-029>032-300500-
WESTERN PENNSYLVANIA

CITY           SKY/WX    TMP DP  RH WIND       PRES   REMARKS
ERIE           CLOUDY    68  58  70 SE6       29.87F
MEADVILLE      CLOUDY    61  56  83 VRB6      29.88F
FRANKLIN*      CLOUDY    61  54  77 NE6       29.91F
NEW CASTLE     MOCLDY    61  60  96 CALM      29.88S
BEAVER COUNTY  NOT AVBL
BUTLER*        CLOUDY    61  57  88 SE6       29.89S
PITTSBURGH INT LGT RAIN  63  59  87 SE5       29.87S
PITTSBURGH     LGT RAIN  61  57  87 SE3       29.88F
INDIANA*       CLOUDY    63  61  94 E8        29.93F
LATROBE        NOT AVBL
WASHINGTON CO* NOT AVBL
$$

PAZ004>006-010>012-017>019-024>028-033>037-041-042-045-046-049>053-300500-
CENTRAL PENNSYLVANIA

CITY           SKY/WX    TMP DP  RH WIND       PRES   REMARKS
BRADFORD       LGT RAIN  59  57  93 E5        29.96S
DUBOIS         CLOUDY    61  56  83 E8        29.93F
CLEARFIELD     LGT RAIN  61  59  93 N3        29.95F
JOHNSTOWN      CLOUDY    66  54  65 S14       29.93F
ALTOONA        CLOUDY    68  54  60 W3        29.93F
STATE COLLEGE  CLOUDY    63  58  84 NE3       29.95S
WILLIAMSPORT   CLOUDY    64  61  90 CALM      29.93F
SELINSGROVE    CLOUDY    66  62  87 N3        29.95S
FT INDIANTOWN  CLOUDY    63  59  87 E2        29.94S
CAPITAL CITY   MOCLDY    69  57  65 E5        29.93S
HARRISBURG     MOCLDY    69  61  75 S5        29.93R
YORK           MOCLDY    68  56  65 SW3       29.94S
$$

PAZ038>040-043-044-047-048-054-055-060>062-067>071-300500-
EASTERN PENNSYLVANIA

CITY           SKY/WX    TMP DP  RH WIND       PRES   REMARKS
SCRANTON       LGT RAIN  67  60  78 CALM      29.96R
MOUNT POCONO   CLOUDY    62  57  83 NW3       30.00R
ALLENTOWN      CLEAR     67  58  72 CALM      29.95S
QUAKERTOWN*    CLEAR     63  59  88 CALM      29.97S
READING        CLEAR     69  57  65 S3        29.94S
LANCASTER      CLEAR     63  59  87 E5        29.94F
COATESVILLE    PTCLDY    66  59  77 CALM      29.97S
POTTSTOWN      CLEAR     64  59  83 CALM      29.97S
BLUE BELL      CLEAR     63  61  94 CALM      29.95S
DOYLESTOWN     CLEAR     64  57  78 CALM      29.95F
WILLOW GROVE   NOT AVBL
NORTH PHILA    CLEAR     71  56  58 S3        29.97S
PHILADELPHIA   CLEAR     73  59  61 S7        29.95F
$$


USA.gov is the U.S. government's official web portal to all federal, state and local government web resources and services.